Ortonville, MN

3:40 PM CST on December 16, 2017 (GMT -0600)
Ortonville Municipal-Martinson

Weather History for KVVV - February, 2014

Change the Weather History Date:

Thursday, February 13, 2014

  Actual Average (KAQP) Record (KAQP)
Temperature  
Mean Temperature 19 °F -  
Max Temperature 35 °F 24 °F 48 °F (2017)
Min Temperature 3 °F 8 °F -7 °F (2007)
Degree Days  
Heating Degree Days 46    
Moisture  
Dew Point 7 °F    
Average Humidity 72    
Maximum Humidity 86    
Minimum Humidity 65    
Precipitation  
Precipitation 0.00 in - - ()
Sea Level Pressure  
Sea Level Pressure 29.64 in    
Wind  
Wind Speed 17 mph (NW)    
Max Wind Speed 36 mph    
Max Gust Speed 47 mph    
Visibility 8 miles    
Events Snow    
Averages and records for this station are not official NWS values.
T = Trace of Precipitation, MM = Missing Value Source: NWS Daily Summary

Daily Weather History Graph

Daily Weather History Graph

Search for Another Location

Airport or City:

Trip Planner

Search our weather history database for the weather conditions in past years. The results will help you decide how hot, cold, wet, or windy it might be!

Date:

Astronomy

Feb. 13, 2014 Rise Set
Actual Time 7:30 AM CST 5:50 PM CST
Civil Twilight 6:59 AM CST 6:20 PM CST
Nautical Twilight 6:24 AM CST 6:55 PM CST
Astronomical Twilight 5:50 AM CST 7:29 PM CST
Moon 4:59 PM CST (2/13) 6:24 AM CST (2/13)
Length of Visible Light 11h 21m
Length of Day
10h 20m
Waxing Gibbous, 99% of the Moon is Illuminated
Feb 13
Waxing Gibbous
Feb 14
Full
Feb 22
Last Quarter
Mar 1
New
Mar 8
First Quarter

Hourly Weather History & Observations

Time (CST) Temp. Windchill Dew Point Humidity Pressure Visibility Wind Dir Wind Speed Gust Speed Precip Events Conditions
12:14 AM 19.4 °F 6.0 °F 14.0 °F 80% 29.51 in 10.0 mi SSE 13.8 mph - N/A   Mostly Cloudy
12:33 AM 19.4 °F 5.0 °F 15.8 °F 86% 29.49 in 10.0 mi SE 16.1 mph 20.7 mph N/A   Scattered Clouds
12:54 AM 19.4 °F 8.6 °F 15.8 °F 86% 29.47 in 10.0 mi SSE 9.2 mph - N/A   Mostly Cloudy
1:14 AM 24.8 °F 12.9 °F 17.6 °F 74% 29.46 in 10.0 mi South 13.8 mph - N/A   Overcast
1:33 AM 23.0 °F 10.6 °F 17.6 °F 80% 29.43 in 10.0 mi South 13.8 mph 17.3 mph N/A   Overcast
1:54 AM 26.6 °F 15.7 °F 19.4 °F 74% 29.43 in 10.0 mi South 12.7 mph - N/A   Overcast
2:14 AM 26.6 °F 16.8 °F 19.4 °F 74% 29.40 in 10.0 mi South 10.4 mph 19.6 mph N/A   Overcast
2:33 AM 28.4 °F 19.1 °F 19.4 °F 69% 29.39 in 10.0 mi South 10.4 mph 18.4 mph N/A   Mostly Cloudy
2:54 AM 28.4 °F 19.1 °F 21.2 °F 74% 29.38 in 10.0 mi SSW 10.4 mph 17.3 mph N/A   Scattered Clouds
3:14 AM 28.4 °F 18.0 °F 21.2 °F 74% 29.37 in 10.0 mi SW 12.7 mph 18.4 mph N/A   Scattered Clouds
3:34 AM 30.2 °F 19.8 °F 21.2 °F 69% 29.36 in 10.0 mi SW 13.8 mph 21.9 mph N/A   Clear
3:54 AM 32.0 °F 20.8 °F 24.8 °F 75% 29.37 in 10.0 mi WSW 17.3 mph 25.3 mph N/A   Clear
4:13 AM 33.8 °F 23.9 °F 24.8 °F 70% 29.37 in 10.0 mi WSW 15.0 mph 21.9 mph N/A   Clear
4:34 AM 33.8 °F 23.9 °F 24.8 °F 70% 29.38 in 10.0 mi West 15.0 mph 20.7 mph N/A   Scattered Clouds
4:54 AM 35.6 °F 27.1 °F 24.8 °F 65% 29.39 in 10.0 mi West 12.7 mph 19.6 mph N/A   Scattered Clouds
5:13 AM 35.6 °F 27.1 °F 26.6 °F 70% 29.39 in 10.0 mi WNW 12.7 mph 20.7 mph N/A   Scattered Clouds
5:34 AM 35.6 °F 23.2 °F 26.6 °F 70% 29.39 in 10.0 mi WNW 26.5 mph 33.4 mph N/A   Scattered Clouds
5:54 AM 33.8 °F 21.0 °F 24.8 °F 70% 29.41 in 10.0 mi WNW 25.3 mph 35.7 mph N/A   Scattered Clouds
6:13 AM 30.2 °F 17.1 °F 23.0 °F 75% 29.43 in 10.0 mi WNW 21.9 mph 35.7 mph N/A   Mostly Cloudy
6:34 AM 28.4 °F 13.3 °F 19.4 °F 69% 29.45 in 10.0 mi WNW 27.6 mph 40.3 mph N/A   Mostly Cloudy
6:54 AM 23.0 °F 4.6 °F 14.0 °F 68% 29.47 in 10.0 mi WNW 33.4 mph 43.7 mph N/A   Mostly Cloudy
7:13 AM 19.4 °F 0.8 °F 10.4 °F 68% 29.50 in 10.0 mi WNW 28.8 mph 39.1 mph N/A   Scattered Clouds
7:33 AM 17.6 °F -3.1 °F 8.6 °F 68% 29.52 in 3.0 mi NW 34.5 mph 47.2 mph N/A   Haze
7:54 AM 15.8 °F -5.8 °F 6.8 °F 68% 29.54 in 1.8 mi NW 35.7 mph 46.0 mph N/A Snow Light Snow
8:13 AM 12.2 °F -8.2 °F 6.8 °F 79% 29.56 in 2.0 mi NW 26.5 mph 43.7 mph N/A   Haze
8:34 AM 12.2 °F -9.9 °F 6.8 °F 79% 29.58 in 1.2 mi NW 32.2 mph 42.6 mph N/A Snow Light Snow
8:54 AM 12.2 °F -10.2 °F 5.0 °F 73% 29.60 in 2.0 mi NW 33.4 mph 41.4 mph N/A   Haze
9:13 AM 12.2 °F -9.3 °F 5.0 °F 73% 29.61 in 3.0 mi NW 29.9 mph 41.4 mph N/A   Haze
9:34 AM 10.4 °F -10.3 °F 3.2 °F 73% 29.62 in 5.0 mi NW 25.3 mph 32.2 mph N/A   Haze
9:54 AM 10.4 °F -9.5 °F 3.2 °F 73% 29.63 in 4.0 mi NW 23.0 mph 35.7 mph N/A   Haze
10:14 AM 10.4 °F -11.0 °F 1.4 °F 67% 29.64 in 3.0 mi NW 27.6 mph 39.1 mph N/A   Haze
10:34 AM 10.4 °F -9.9 °F 1.4 °F 67% 29.66 in 4.0 mi NW 24.2 mph 36.8 mph N/A   Haze
10:53 AM 10.4 °F -10.7 °F 1.4 °F 67% 29.65 in 4.0 mi NW 26.5 mph 36.8 mph N/A   Haze
11:14 AM 10.4 °F -9.5 °F 1.4 °F 67% 29.66 in 4.0 mi NW 23.0 mph 38.0 mph N/A   Haze
11:34 AM 10.4 °F -8.6 °F 1.4 °F 67% 29.70 in 7.0 mi NW 20.7 mph 32.2 mph N/A   Mostly Cloudy
11:53 AM 10.4 °F -10.3 °F 1.4 °F 67% 29.71 in 7.0 mi NNW 25.3 mph 32.2 mph N/A   Overcast
12:14 PM 10.4 °F -10.3 °F 1.4 °F 67% 29.71 in 7.0 mi NW 25.3 mph 32.2 mph N/A   Overcast
12:34 PM 10.4 °F -9.9 °F 1.4 °F 67% 29.72 in 7.0 mi NW 24.2 mph 33.4 mph N/A   Overcast
12:54 PM 10.4 °F -8.2 °F 1.4 °F 67% 29.73 in 10.0 mi NW 19.6 mph 28.8 mph N/A   Overcast
1:34 PM 10.4 °F -7.7 °F 1.4 °F 67% 29.73 in 10.0 mi NW 18.4 mph 31.1 mph N/A   Mostly Cloudy
1:54 PM 10.4 °F -7.7 °F 3.2 °F 73% 29.73 in 5.0 mi NW 18.4 mph 28.8 mph N/A   Haze
2:14 PM 10.4 °F -9.1 °F 1.4 °F 67% 29.73 in 10.0 mi NW 21.9 mph 26.5 mph N/A   Overcast
2:34 PM 10.4 °F -9.1 °F 1.4 °F 67% 29.73 in 3.0 mi NW 21.9 mph 27.6 mph N/A   Haze
2:53 PM 10.4 °F -6.6 °F 1.4 °F 67% 29.74 in 10.0 mi NNW 16.1 mph 24.2 mph N/A   Overcast
3:14 PM 10.4 °F -6.6 °F 1.4 °F 67% 29.75 in 10.0 mi NW 16.1 mph 23.0 mph N/A   Overcast
3:34 PM 10.4 °F -6.6 °F 3.2 °F 73% 29.76 in 7.0 mi NW 16.1 mph 23.0 mph N/A   Overcast
3:53 PM 10.4 °F -7.7 °F 1.4 °F 67% 29.76 in 10.0 mi NW 18.4 mph 24.2 mph N/A   Overcast
4:14 PM 10.4 °F -6.0 °F 3.2 °F 73% 29.76 in 4.0 mi NNW 15.0 mph 21.9 mph N/A   Haze
4:33 PM 10.4 °F -4.1 °F 1.4 °F 67% 29.78 in 7.0 mi NNW 11.5 mph 20.7 mph N/A   Mostly Cloudy
4:54 PM 8.6 °F -7.7 °F -0.4 °F 67% 29.78 in 10.0 mi NNW 13.8 mph - N/A   Scattered Clouds
5:14 PM 8.6 °F -6.3 °F -0.4 °F 67% 29.78 in 10.0 mi NNW 11.5 mph 16.1 mph N/A   Clear
5:34 PM 6.8 °F -7.8 °F -0.4 °F 72% 29.77 in 10.0 mi NNW 10.4 mph - N/A   Clear
5:53 PM 6.8 °F -7.8 °F -0.4 °F 72% 29.79 in 10.0 mi NNW 10.4 mph - N/A   Clear
6:14 PM 6.8 °F -5.9 °F -2.2 °F 67% 29.80 in 10.0 mi NW 8.1 mph - N/A   Clear
6:33 PM 5.0 °F -6.9 °F -2.2 °F 72% 29.79 in 10.0 mi NNW 6.9 mph - N/A   Clear
6:54 PM 5.0 °F -10.0 °F -2.2 °F 72% 29.79 in 10.0 mi NNW 10.4 mph - N/A   Clear
7:13 PM 5.0 °F -6.9 °F -2.2 °F 72% 29.80 in 10.0 mi NW 6.9 mph - N/A   Clear
7:34 PM 3.2 °F -11.3 °F -2.2 °F 78% 29.78 in 10.0 mi North 9.2 mph - N/A   Clear
7:53 PM 3.2 °F -9.1 °F -2.2 °F 78% 29.80 in 10.0 mi NNW 6.9 mph - N/A   Clear
8:14 PM 3.2 °F -9.1 °F -2.2 °F 78% 29.81 in 10.0 mi NW 6.9 mph - N/A   Clear
8:34 PM 3.2 °F -10.3 °F -2.2 °F 78% 29.81 in 10.0 mi NNW 8.1 mph - N/A   Clear
8:54 PM 3.2 °F -12.2 °F -2.2 °F 78% 29.81 in 10.0 mi NNW 10.4 mph - N/A   Clear
9:11 PM 3.2 °F -11.3 °F -2.2 °F 78% 29.81 in 10.0 mi NNW 9.2 mph - N/A   Clear
9:34 PM 3.2 °F -10.3 °F -2.2 °F 78% 29.80 in 10.0 mi NNW 8.1 mph - N/A   Clear
9:54 PM 3.2 °F -10.3 °F -4.0 °F 72% 29.82 in 10.0 mi NW 8.1 mph - N/A   Clear
10:14 PM 3.2 °F -13.1 °F -4.0 °F 72% 29.81 in 10.0 mi NNW 11.5 mph - N/A   Clear
10:33 PM 3.2 °F -12.2 °F -4.0 °F 72% 29.80 in 10.0 mi NNW 10.4 mph - N/A   Clear
10:54 PM 3.2 °F -12.2 °F -2.2 °F 78% 29.82 in 10.0 mi NW 10.4 mph - N/A   Clear
11:14 PM 3.2 °F -11.3 °F -2.2 °F 78% 29.82 in 10.0 mi NNW 9.2 mph - N/A   Clear
11:33 PM 3.2 °F -14.6 °F -2.2 °F 78% 29.80 in 10.0 mi North 13.8 mph - N/A   Clear
11:54 PM 3.2 °F -14.6 °F -2.2 °F 78% 29.81 in 10.0 mi North 13.8 mph - N/A   Scattered Clouds